Change the Weather History Date:

Monday, October 28, 2013

  Actual Average Record
Temperature  
Mean Temperature 65 °F 61 °F  
Max Temperature 80 °F 74 °F 87 °F (1950)
Min Temperature 49 °F 47 °F 28 °F (1970)
Degree Days  
Heating Degree Days 0 5  
Month to date heating degree days 50 63  
Since 1 July heating degree days 50 67  
Cooling Degree Days 0 1  
Month to date cooling degree days 74 81  
Year to date cooling degree days 2689 2327  
Growing Degree Days 16 (Base 50)    
Moisture  
Dew Point 31 °F    
Average Humidity 39    
Maximum Humidity 66    
Minimum Humidity 11    
Precipitation  
Precipitation 0.00 in 0.02 in 0.54 in (1980)
Month to date precipitation 0.00 0.56  
Year to date precipitation 9.15 8.39  
Snow  
Snow 0.00 in - - ()
Month to date snowfall 0.0  
Since 1 July snowfall T  
Since 1 September snowfall 0.0  
Snow Depth 0.00 in    
Sea Level Pressure  
Sea Level Pressure 29.81 in    
Wind  
Wind Speed 9 mph (SSW)    
Max Wind Speed 24 mph    
Max Gust Speed 28 mph    
Visibility 10 miles    
Events      
T = Trace of Precipitation, MM = Missing Value Source: NWS Daily Summary

Daily Weather History Graph

Daily Weather History Graph

Search for Another Location

Airport or City:

Trip Planner

Search our weather history database for the weather conditions in past years. The results will help you decide how hot, cold, wet, or windy it might be!

Date:

Astronomy

Oct. 28, 2013 Rise Set
Actual Time 7:18 AM MDT 6:19 PM MDT
Civil Twilight 6:53 AM MDT 6:44 PM MDT
Nautical Twilight 6:25 AM MDT 7:12 PM MDT
Astronomical Twilight 5:56 AM MDT 7:41 PM MDT
Moon 1:35 AM MDT (10/28) 2:43 PM MDT (10/28)
Length of Visible Light 11h 50m
Length of Day
11h 00m
Waning Crescent, 33% of the Moon is Illuminated
Oct 28
Waning Crescent
Nov 3
New
Nov 9
First Quarter
Nov 17
Full
Nov 25
Last Quarter

Hourly Weather History & Observations

Time (MDT) Temp. Dew Point Humidity Pressure Visibility Wind Dir Wind Speed Gust Speed Precip Events Conditions
12:51 AM 60.1 °F 39.9 °F 47% 29.78 in 10.0 mi NNE 3.5 mph - N/A   Partly Cloudy
1:51 AM 55.9 °F 39.0 °F 53% 29.79 in 10.0 mi Calm Calm - N/A   Partly Cloudy
2:51 AM 55.0 °F 39.0 °F 55% 29.79 in 10.0 mi Calm Calm - N/A   Partly Cloudy
3:51 AM 52.0 °F 37.9 °F 59% 29.78 in 10.0 mi East 3.5 mph - N/A   Partly Cloudy
4:51 AM 50.0 °F 37.9 °F 63% 29.78 in 10.0 mi Calm Calm - N/A   Clear
5:51 AM 52.0 °F 39.9 °F 63% 29.79 in 10.0 mi SE 8.1 mph - N/A   Clear
6:51 AM 54.0 °F 42.1 °F 64% 29.82 in 10.0 mi SE 8.1 mph - N/A   Partly Cloudy
7:51 AM 57.0 °F 42.1 °F 57% 29.84 in 10.0 mi SSE 5.8 mph - N/A   Scattered Clouds
8:51 AM 66.0 °F 37.9 °F 36% 29.85 in 10.0 mi SSW 6.9 mph - N/A   Scattered Clouds
9:51 AM 66.9 °F 39.0 °F 36% 29.88 in 10.0 mi SSE 8.1 mph - N/A   Scattered Clouds
10:51 AM 71.1 °F 37.0 °F 29% 29.87 in 10.0 mi Variable 5.8 mph - N/A   Scattered Clouds
11:51 AM 75.9 °F 35.1 °F 23% 29.84 in 10.0 mi SW 11.5 mph - N/A   Scattered Clouds
12:51 PM 77.0 °F 32.0 °F 19% 29.81 in 10.0 mi WSW 13.8 mph - N/A   Mostly Cloudy
1:51 PM 79.0 °F 27.0 °F 15% 29.78 in 10.0 mi WSW 17.3 mph 24.2 mph N/A   Mostly Cloudy
2:51 PM 77.0 °F 28.0 °F 17% 29.78 in 10.0 mi SW 12.7 mph - N/A   Mostly Cloudy
3:51 PM 77.0 °F 27.0 °F 16% 29.76 in 10.0 mi South 13.8 mph - N/A   Mostly Cloudy
4:51 PM 79.0 °F 19.9 °F 11% 29.77 in 10.0 mi SW 16.1 mph 24.2 mph N/A   Mostly Cloudy
5:51 PM 75.9 °F 21.9 °F 13% 29.78 in 10.0 mi South 11.5 mph - N/A   Overcast
6:51 PM 73.0 °F 24.1 °F 16% 29.80 in 10.0 mi South 8.1 mph - N/A   Mostly Cloudy
7:51 PM 72.0 °F 24.1 °F 17% 29.82 in 10.0 mi SSW 8.1 mph - N/A   Mostly Cloudy
8:51 PM 73.0 °F 21.0 °F 14% 29.80 in 10.0 mi WSW 11.5 mph - N/A   Mostly Cloudy
9:51 PM 72.0 °F 19.9 °F 14% 29.82 in 10.0 mi SW 12.7 mph - N/A   Mostly Cloudy
10:51 PM 72.0 °F 19.0 °F 13% 29.82 in 10.0 mi SW 12.7 mph 23.0 mph N/A   Overcast
11:51 PM 70.0 °F 21.9 °F 16% 29.82 in 10.0 mi WSW 10.4 mph - N/A   Overcast